Location: Beuerbach
(48.1459°N, 10.9174°E)
Time: 01:47:19
(UTC+00:00)

Meteor 1-21 - Pass Details

Date: 11 August 2024
Orbit: 845 x 885 km, 81.2° (Epoch: 09 September)

Event Time Altitude Azimuth Distance (km) Brightness Sun altitude
Rises 02:06:30 0° 332° (NNW) 3,417 7.6 -16.8°
Reaches altitude 10° 02:10:07 10° 309° (NW) 2,478 6.6 -16.4°
Maximum altitude 02:12:52 14° 279° (W) 2,204 6.0 -16.1°
Enters shadow 02:13:46 14° 268° (W) 2,234 6.0 -16.0°
